Weather observations for the past three days for
Baltimore / Martin
Imperial (Metric)
Date Time (edt) Wind (mph) Vis. (mi.) Weather Sky Cond. Temperature (ºF) Relative Humidity Wind Chill (°F) Heat Index (°F) Pressure Precipitation (in)
Air Dwpt 6 hour altimeter (in) sea level (mb) 1 hr 3 hr 6 hr
Max. Min.
19 06:45 N 3 10.00 Partly Cloudy SCT085 69.8 60.8 73% 30.11 0.0
19 05:54 Calm 10.00 Mostly Cloudy BKN085 69.8 60.8 73% 30.09 0.0
19 05:48 Calm 10.00 Partly Cloudy SCT095 69.8 60.8 73% 30.09 0.0
19 05:28 N 3 10.00 Partly Cloudy SCT095 71.6 60.8 69% 30.07 0.0
19 05:08 Calm 10.00 Fair CLR 71.6 62.6 73% 30.07 0.0
19 04:48 N 3 10.00 Fair CLR 71.6 62.6 73% 30.06 0.0
19 04:28 NW 3 10.00 Fair CLR 71.6 64.4 78% 30.06 0.0
19 04:08 Calm 10.00 Fair CLR 71.6 66.2 83% 30.05 0.0
19 03:48 Calm 10.00 Partly Cloudy SCT090 71.6 66.2 83% 30.05 0.0
19 03:28 NW 3 10.00 Partly Cloudy SCT090 71.6 66.2 83% 30.04 0.0
19 03:08 NW 5 10.00 Fair CLR 71.6 68 88% 30.04 0.0
19 02:48 Calm 10.00 Fair CLR 71.6 68 88% 30.03 0.0
19 02:28 Calm 10.00 Fair CLR 71.6 68 88% 30.03 0.0
19 02:08 Calm 10.00 Fair CLR 71.6 68 88% 30.03 0.0
19 01:48 W 3 10.00 Fair CLR 71.6 68 88% 30.03 0.0
19 01:28 Calm 10.00 Fair CLR 71.6 68 88% 30.03 0.0
19 01:08 W 3 10.00 Fair CLR 71.6 68 88% 30.03 0.0
19 00:48 Calm 10.00 Fair CLR 71.6 68 88% 30.03 0.0
19 00:28 Calm 10.00 Fair CLR 73.4 68 83% 30.02 0.0
19 00:08 Calm 10.00 Fair CLR 71.6 68 88% 30.02 0.0
18 23:48 NW 3 10.00 Fair CLR 73.4 68 83% 30.02 0.0
18 23:28 W 3 10.00 Fair CLR 73.4 68 83% 30.02 0.0
18 23:08 NW 3 10.00 Fair CLR 73.4 69.8 89% 30.02 0.0
18 22:48 Calm 10.00 Fair CLR 73.4 69.8 89% 30.01 0.0
18 22:28 Calm 10.00 Fair CLR 73.4 69.8 89% 30.01 0.0
18 22:08 Calm 10.00 Fair CLR 73.4 69.8 89% 30.01 0.0
18 21:54 Calm 10.00 Fair CLR 75.2 69.8 83% 75 30.01 0.0
18 20:55 Calm 10.00 Fair CLR 78.8 68 70% 81 29.99 0.0
18 19:54 N 3 10.00 Fair CLR 80.6 64.4 58% 82 29.96 0.0
18 18:54 Calm 10.00 Fair CLR 82.4 64.4 55% 84 29.95 0.0
18 17:54 N 6 10.00 Fair CLR 82.4 62.6 51% 83 29.94 0.0
18 16:54 NW 3 10.00 Mostly Cloudy BKN120 82.4 66.2 58% 85 29.95 0.0
18 15:54 Calm 10.00 Overcast OVC110 82.4 66.2 58% 85 29.96 0.0
18 14:54 NW 6 10.00 Mostly Cloudy BKN120 82.4 66.2 58% 85 29.97 0.0
18 13:54 NW 8 10.00 Fair CLR 82.4 66.2 58% 85 29.97 0.0
18 12:54 N 5 10.00 Fair CLR 82.4 68 62% 85 29.96 0.0
18 11:54 NW 8 10.00 Fair CLR 80.6 68 66% 83 29.96 0.0
18 10:45 NW 7 10.00 Fair CLR 78.8 69.8 74% 81 29.97 0.0
18 09:54 W 5 10.00 Partly Cloudy SCT100 77 69.8 79% 79 29.96 0.0
18 08:54 NW 3 10.00 Mostly Cloudy BKN110 77 71.6 83% 78 29.94 0.0
18 07:54 NW 7 10.00 Mostly Cloudy BKN100 73.4 71.6 94% 29.93 0.0
18 06:54 NW 3 10.00 Partly Cloudy SCT110 73.4 71.6 94% 29.9 0.0
18 05:54 NW 5 10.00 Partly Cloudy SCT100 73.4 71.6 94% 29.89 0.0
18 05:48 NW 5 10.00 Overcast OVC100 73.4 71.6 94% 29.89 0.0
18 05:28 Calm 10.00 Mostly Cloudy BKN100 73.4 71.6 94% 29.89 0.0
18 05:08 Calm 10.00 Partly Cloudy SCT041 SCT100 73.4 71.6 94% 29.89 0.0
18 04:48 NW 3 10.00 Partly Cloudy SCT041 73.4 71.6 94% 29.88 0.0
18 04:28 NW 3 10.00 Fair CLR 73.4 73.4 100% 29.87 0.0
18 04:08 Calm 10.00 Partly Cloudy SCT120 73.4 73.4 100% 29.86 0.0
18 03:48 Calm 10.00 Partly Cloudy SCT120 73.4 73.4 100% 29.87 0.0
18 03:28 Calm 10.00 Fair CLR 73.4 73.4 100% 29.86 0.0
18 03:08 Calm 10.00 Fair CLR 73.4 73.4 100% 29.87 0.0
18 02:48 Calm 10.00 Fair CLR 73.4 73.4 100% 29.86 0.0
18 02:28 Calm 10.00 Fair CLR 73.4 73.4 100% 29.85 0.0
18 02:08 N 3 10.00 Fair CLR 73.4 73.4 100% 29.84 0.0
18 01:48 Calm 10.00 Fair CLR 73.4 73.4 100% 29.84 0.0
18 01:28 NW 3 10.00 Fair CLR 73.4 73.4 100% 29.85 0.0
18 01:08 Calm 7.00 Fair CLR 75.2 73.4 94% 74 29.84 0.0
18 00:48 Calm 10.00 Fair CLR 75.2 73.4 94% 74 29.85 0.0
18 00:28 Calm 10.00 Fair CLR 75.2 73.4 94% 74 29.86 0.0
18 00:08 Calm 10.00 Fair CLR 75.2 73.4 94% 74 29.86 0.0
17 23:48 Calm 10.00 Partly Cloudy SCT042 75.2 73.4 94% 74 29.87 0.0 0.01
17 23:28 Calm 10.00 Partly Cloudy SCT042 SCT048 SCT075 75.2 75.2 100% 73 29.87 0.0 0.01
17 23:08 W 6 10.00 Partly Cloudy SCT042 SCT048 77 75.2 94% 78 29.87 0.0
17 22:48 NW 3 7.00 Partly Cloudy SCT070 75.2 75.2 100% 73 29.87 0.0
17 22:28 Calm 7.00 Mostly Cloudy BKN070 77 75.2 94% 78 29.87 0.0
17 22:08 Calm 10.00 Partly Cloudy SCT070 SCT095 77 75.2 94% 78 29.87 0.0
17 21:54 Calm 10.00 Partly Cloudy SCT095 77 75.2 94% 78 29.86 0.0
17 20:54 Calm 10.00 Rain OVC075 77 75.2 94% 78 29.87 0.0
17 19:54 W 5 10.00 Thunderstorm in Vicinity Thunderstorm in Vicinity SCT070 BKN095 BKN120 77 73.4 89% 78 29.84 0.0
17 19:10 NW 8 5.00 Thunderstorm Rain Thunderstorm BKN024 OVC036 73.4 73.4 100% 29.84 0.0
17 18:54 W 9 10.00 Light Rain SCT035 BKN065 OVC110 77 75.2 94% 78 29.81 0.0
17 17:54 N 6 10.00 Thunderstorm OVC055 77 71.6 83% 78 29.79 0.0
17 16:54 S 6 10.00 Partly Cloudy SCT110 87.8 78.8 75% 102 29.8 0.0
17 15:54 SE 15 10.00 Partly Cloudy SCT070TCU 93.2 73.4 53% 103 29.8 0.0
17 14:54 SE 14 10.00 Fair CLR 95 73.4 50% 105 29.82 0.0
17 13:54 W 8 10.00 Partly Cloudy SCT065 96.8 64.4 34% 99 29.84 0.0
17 11:54 S 8 10.00 Fair CLR 93.2 69.8 47% 99 29.86 0.0
17 10:53 S 6 10.00 Fair CLR 89.6 69.8 52% 95 29.87 0.0
17 09:53 W 6 10.00 Fair CLR 87.8 69.8 55% 93 29.89 0.0
17 08:53 W 5 10.00 Partly Cloudy SCT110 82.4 71.6 70% 87 29.89 0.0
17 07:53 Calm 10.00 Fair CLR 80.6 75.2 84% 86 29.89 0.0
17 06:53 Calm 10.00 Fair CLR 78.8 77 94% 83 29.87 0.0
17 05:54 Calm 10.00 Fair CLR 77 77 100% 78 29.85 0.0
17 05:48 SW 3 10.00 Fair CLR 78.8 77 94% 83 29.85 0.0
17 05:29 Calm 10.00 Fair CLR 77 77 100% 78 29.84 0.0
17 05:08 Calm 10.00 Fair CLR 77 77 100% 78 29.84 0.0
17 04:48 Calm 10.00 Fair CLR 77 77 100% 78 29.84 0.0
17 04:29 Calm 7.00 Fair CLR 77 77 100% 78 29.83 0.0
17 04:08 Calm 10.00 Fair CLR 77 77 100% 78 29.83 0.0
17 03:48 Calm 10.00 Fair CLR 77 77 100% 78 29.83 0.0
17 03:28 Calm 10.00 Fair CLR 77 77 100% 78 29.83 0.0
17 03:08 Calm 10.00 Fair CLR 77 77 100% 78 29.83 0.0
17 02:48 Calm 7.00 Fair CLR 77 77 100% 78 29.83 0.0
17 02:28 Calm 10.00 Fair CLR 77 77 100% 78 29.83 0.0
17 02:08 Calm 7.00 Fair CLR 77 75.2 94% 78 29.84 0.0
17 01:48 Calm 10.00 Fair CLR 77 75.2 94% 78 29.84 0.0 0.01
17 01:28 Calm 10.00 Fair CLR 77 75.2 94% 78 29.85 0.0
17 01:08 Calm 10.00 Fair CLR 78.8 77 94% 83 29.85 0.0
17 00:48 S 3 10.00 Fair CLR 78.8 77 94% 83 29.85 0.0
17 00:28 SE 5 10.00 Fair CLR 78.8 77 94% 83 29.85 0.0
17 00:08 Calm 10.00 Partly Cloudy SCT120 78.8 75.2 89% 82 29.86 0.0
16 23:48 E 3 10.00 Mostly Cloudy BKN120 77 75.2 94% 78 29.85 0.0
16 23:28 Calm 10.00 Partly Cloudy SCT100 SCT120 77 75.2 94% 78 29.84 0.0
16 23:08 Calm 10.00 Light Rain SCT100 77 73.4 89% 78 29.85 0.0
16 22:48 Calm 10.00 Light Rain SCT070 SCT085 SCT110 77 73.4 89% 78 29.86 0.0 0.01
16 22:28 S 5 10.00 Thunderstorm Light Rain in Vicinity SCT032 SCT060 BKN110 78.8 71.6 79% 82 29.85 0.0
16 22:08 W 10 G 25 2.00 Thunderstorm Rain SCT014 SCT037 OVC065 80.6 71.6 74% 85 29.86 0.0
16 21:54 NW 18 G 24 10.00 Thunderstorm in Vicinity SCT035 SCT041 89.6 73.4 59% 98 29.83 0.0
16 20:54 SE 7 10.00 Partly Cloudy SCT100 89.6 78.8 71% 105 29.78 0.0
16 19:54 S 7 10.00 Fair CLR 91.4 77 63% 105 29.78 0.0
16 18:54 S 13 10.00 Partly Cloudy SCT110 93.2 77 59% 107 29.77 0.0
16 17:54 S 14 G 23 10.00 Partly Cloudy SCT095 95 77 56% 110 29.75 0.0
16 16:55 SE 17 10.00 Fair CLR 96.8 73.4 47% 107 29.76 0.0
16 15:55 SE 15 G 21 10.00 Fair CLR 96.8 73.4 47% 107 29.77 0.0
16 14:55 SE 15 10.00 Fair CLR 96.8 73.4 47% 107 29.8 0.0
16 13:54 SE 18 G 24 10.00 Fair CLR 89.6 73.4 59% 98 29.81 0.0
16 12:53 SE 14 10.00 Fair CLR 96.8 69.8 42% 103 29.85 0.0
16 11:53 SE 8 10.00 Fair CLR 91.4 75.2 59% 103 29.86 0.0
16 10:53 SE 9 10.00 Fair CLR 89.6 77 67% 103 29.87 0.0
16 09:53 SE 6 10.00 Fair CLR 89.6 71.6 55% 96 29.85 0.0
16 08:54 SW 5 10.00 Fair CLR 86 69.8 59% 91 29.87 0.0
Date Time (edt) Wind (mph) Vis. (mi.) Weather Sky Cond. Air Dwpt Max. Min. Relative Humidity Wind Chill (°F) Heat Index (°F) altimeter (in) sea level (mb) 1 hr 3 hr 6 hr
6 hour
Temperature (ºF) Pressure Precipitation (in)